Время (UTC), дата Ветер
(°,м/с) 
Видим.   Явления Облачность Т
(°С)
Тd
(°С)
f(%) Тe
(°С)
Pmin
(гПа)
dP
(гПа)
Po
(мм)
O2
(г/м3)
Тmin Tmax R s Состояние
почвы
00 01.08.16 230 (ЮЗ) 20000 м    ясно 
+19.5 +9 51 +22  1013.7  -0.3  722  270           
03 01.08.16 030 (СВ) 20000 м    ясно 
+21.9 +7.9 41 +22  1013.9  0.5  722  268  +17.5        сухая 
06 01.08.16 110 (В) 20000 м    ясно 
+28.5 +8.6 29 +29  1013.1  0.3  722  262           
09 01.08.16 350 (С) 20000 м    3/3 600 м 
[Cu hum]
+30.4 +9.4 27 +32  1012.7  0.1  722  260           
12 01.08.16 030 (СВ) 20000 м    4/4 600 м 
[Cu hum]
+31.3 +9.5 26 +33  1011.8  -0.6  722  259           
15 01.08.16 050 (СВ) 20000 м    1/1 1000 м 
[Cu hum]
+29.4 +11.4 33 +33  1011.6  -0.5  721  260    +31.4       
18 01.08.16 330 (СЗ) 20000 м    3/0 средняя 
[Ac trans]
+25.6 +11.9 42 +30  1012.8  0.5  722  264           
21 01.08.16 350 (С) 20000 м    ясно 
+22.1 +12.3 54 +27  1013.2  -0.3  722  267           
00 02.08.16 тихо ()   20000 м    ясно 
+20.5 +11.7 57 +25  1012.4  -1  721  268           
03 02.08.16 160 (Ю) 20000 м    ясно 
+21.1 +11.2 53 +25  1012.5  0.2  721  268  +18.2        сухая 
06 02.08.16 120 (ЮВ) 20000 м    ясно 
+27.6 +12.4 39 +33  1011.5  0.1  721  261           
09 02.08.16 090 (В) 20000 м    3/3 600 м 
[Cu hum]
+31.3 +12.5 32 +37  1010.4  -0.5  721  258           
12 02.08.16 050 (СВ) 3{11}  20000 м    1/1 600 м 
[Cu hum]
+32 +9.2 24 +33  1008.9  -1.3  720  258           
15 02.08.16 070 (В) 20000 м    ясно 
+29.7 +9.4 28 +31  1008.3  -1  719  260    +32       
18 02.08.16 040 (СВ) 20000 м    ясно 
+26.1 +9.3 35 +27  1009.4  0.5  719  263           
21 02.08.16 070 (В) 20000 м    ясно 
+22.6 +9.5 43 +24  1009.4  -0.6  719  266           
00 03.08.16 130 (ЮВ) 20000 м    ясно 
+22.2 +9.9 46 +24  1009.2  -0.2  719  266           
03 03.08.16 130 (ЮВ) 20000 м    ясно 
+23 +12.6 52 +29  1009.1  0.1  719  265  +18.1        сухая 
06 03.08.16 110 (В) 20000 м    ясно 
+26.9 +14.8 47 +36  1008.6  0.2  719  261           
09 03.08.16 090 (В) 20000 м    3/0 верхняя 
[Ci sp]
+31.2 +10.4 28 +34  1007.1  -0.8  718  258           
12 03.08.16 050 (СВ) 20000 м    3/0 верхняя 
[Ci sp]
+33 +10.2 25 +35  1005.8  -1  718  256           
15 03.08.16 120 (ЮВ) 20000 м    8/0 средняя, верхняя 
[Ac As|Cc]
+32 +8.9 24 +33  1005.9  -0.1  718  257    +33.1       
18 03.08.16 270 (З) 20000 м    8/0 средняя 
[Ac trans]
+23.5 +14.3 56 +32  1008  0.7  718  263           
21 03.08.16 270 (З) 20000 м    ясно 
+22 +13 57 +28  1008.5  0.2  718  265           
00 04.08.16 200 (Ю) 20000 м    3/0 средняя 
[Ac trans]
+21.1 +11.3 54 +25  1008.9  0.2  718  267           
03 04.08.16 210 (ЮЗ) 20000 м    6/0 средняя, верхняя 
[Ac trans|Ci]
+20.1 +13.1 64 +27  1009.8  0.7  719  267  +19.1        сухая 
06 04.08.16 170 (Ю) 20000 м    6/0 верхняя 
[Ci fib]
+28.6 +15.5 45 +39  1009.1  0.7  719  259           
09 04.08.16 250 (З) 20000 м    8/3 600 м верхняя 
[Cu med, cong|Ci fib]
+31.4 +16.3 40 +44  1008.9  0.3  720  257           
12 04.08.16 160 (Ю) 20000 м  гроза, ливневой дождь  8/5 600 м кучево-дожд., средняя, верхняя 
[Cb cap|Ac trans|Ci fib]
+26.4 +17.7 59 +41  1009.2  -0.4  719  260           
15 04.08.16 240 (ЮЗ) 9-11{11}  10 км  гроза, ливневой дождь  10/6 600 м кучево-дожд., средняя 
[Cb cap|Ac und]
+18.9 +13.5 71 +26  1011.9  1.2  720  269    +32.5  0.8     
18 04.08.16 280 (З) 4{16}  20000 м  слаб. ливневой дождь{гроза}  10/5 600 м кучево-дожд., средняя 
[Cb calv|Ac und]
+19.4 +17 86 +34  1013.7  1.9  722  268           
21 04.08.16 300 (СЗ) 20000 м  {ливн. осадки}  9/4 600 м кучево-дожд., средняя 
[Cb calv|Ac trans]
+19.5 +16.2 81 +33  1012.7  -0.9  721  268           
00 05.08.16 300 (СЗ) 4000 м  дымка{ливн. осадки}  5/0 средняя 
[Ac trans]
+18 +16.7 92 +31  1013  -0.1  721  269           
03 05.08.16 190 (Ю) 20000 м    4/0 средняя 
[Ac trans]
+17.7 +16.4 92 +31  1013.7  0.6  721  269  +16.5      влажная 
06 05.08.16 130 (ЮВ) 20000 м    3/0 средняя 
[Ac trans]
+25.5 +15.5 54 +36  1013.2  0.8  722  263           
09 05.08.16 090 (В) 20000 м    3/1 600 м средняя, верхняя 
[Cu hum|Ac trans|Ci fib]
+27.7 +15.6 48 +39  1012.8  722  261           
12 05.08.16 070 (В) 20000 м    5/3 600 м средняя, верхняя 
[Cu hum|Ac trans|Ci fib]
+29.3 +15.2 42 +39  1012.4  -0.2  722  260           
15 05.08.16 030 (СВ) 20000 м    3/0 средняя 
[Ac trans]
+29.9 +11.8 33 +34  1011  -1.3  721  260    +30.2       
18 05.08.16 340 (С) 20000 м    5/0 средняя 
[Ac trans]
+24.6 +14.9 55 +34  1012.5  0.6  721  264           
21 05.08.16 020 (С) 20000 м    6/0 средняя 
[Ac trans]
+23.2 +9.5 42 +24  1011.8  -1  721  266           
00 06.08.16 040 (СВ) 20000 м    6/0 средняя 
[Ac trans]
+22.3 +10 46 +24  1011.8  -0.2  721  267           
03 06.08.16 070 (В) 20000 м  {ливн. осадки}  9/4 1000 м кучево-дожд., средняя 
[Cb calv|Ac trans]
+21.3 +12.1 56 +26  1011.7  -0.2  720  267  +20.2        сухая 
06 06.08.16 120 (ЮВ) 20000 м  {ливн. осадки}  8/0 средняя 
[Ac trans]
+25.4 +15.9 56 +37  1011.5  0.5  721  262           
09 06.08.16 070 (В) 20000 м    8/0 верхняя 
[Ci fib]
+28.9 +13.9 40 +37  1011.3  0.4  721  260           
12 06.08.16 070 (В) 7{11}  20000 м    3/0 верхняя 
[Ci fib]
+29.7 +8.8 27 +30  1010.7  -0.5  721  260           
15 06.08.16 070 (В) 4{11}  20000 м    8/0 верхняя 
[Ci fib]
+27.4 +10.5 35 +30  1010.8  -0.3  721  262    +30.1       
18 06.08.16 080 (В) 20000 м    9/5 1000 м кучево-дожд., средняя 
[Cb calv|Ac trans]
+23.9 +12.1 48 +29  1012.3  -0.3  721  265           
21 06.08.16 090 (В) 3{10}  20000 м    8/3 1000 м кучево-дожд., средняя 
[Cb calv|Ac trans]
+21.4 +11.2 52 +25  1012.2  -0.6  721  267           
00 07.08.16 070 (В) 20000 м    3/0 
[]
+18.4 +11.1 62 +22  1012  -0.7  720  270           
03 07.08.16 090 (В) 20000 м    4/0 средняя, верхняя 
[Ac trans|Ci fib]
+19 +12.2 65 +26  1011.1  -0.7  720  269  +16.8        сухая 
06 07.08.16 100 (В) 20000 м    8/0 средняя, верхняя 
[Ac trans|Ci]
+22.4 +15.4 65 +33  1010.8  0.4  720  265           
09 07.08.16 060 (СВ) 20000 м    8/3 1000 м кучево-дожд., средняя, верхняя 
[Cb calv|Ac As|Ci]
+27.5 +15.8 49 +39  1009.9  720  260           
12 07.08.16 110 (В) 6{11}  20000 м    6/1 1500 м средняя, верхняя 
[Sc|Ac trans|Ci fib]
+30.4 +15.6 41 +41  1008.5  719  258           
15 07.08.16 100 (В) 5{10}  20000 м    8/0 средняя 
[Ac trans]
+26.7 +12.9 42 +33  1009.6  0.5  720  262    +30.4       
18 07.08.16 210 (ЮЗ) 20000 м    10/3 1000 м средняя 
[Sc diur, vesp|Ac und]
+23.6 +15.2 59 +34  1011.1  0.9  720  264           
21 07.08.16 330 (СЗ) 20000 м    9/1 1000 м средняя 
[Sc|Ac trans]
+22.4 +15.9 67 +34  1010.7  -0.6  720  265           
00 08.08.16 280 (З) 20000 м    6/0 средняя 
[Ac trans]
+21.2 +15.6 70 +32  1010  -0.8  719  266           
03 08.08.16 260 (З) 20000 м    8/3 1000 м средняя, верхняя 
[Sc|Ac As|Ci sp]
+21.7 +15.3 67 +32  1010.3  0.3  719  265  +19.5        сухая 
06 08.08.16 240 (ЮЗ) 20000 м    8/0 средняя 
[Ac trans]
+24.2 +14.9 56 +34  1010.3  0.4  720  263           
09 08.08.16 260 (З) 20000 м    6/0 средняя 
[Ac trans]
+29.8 +15.9 43 +41  1009.5  0.2  720  258           
12 08.08.16 290 (З) 5{10}  20000 м    6/3 600 м верхняя 
[Cu med, cong|Ci fib]
+31.5 +12.7 32 +37  1009  -0.3  720  258           
15 08.08.16 300 (СЗ) 4{10}  20000 м    3/0 средняя 
[Ac trans]
+30 +13.1 36 +37  1009.8  0.5  720  259    +31.8       
18 08.08.16 270 (З) 20000 м    3/3 1000 м кучево-дожд. 
[Cb calv]
+24.5 +14.2 53 +33  1012.1  1.3  721  264           
21 08.08.16 270 (З) 20000 м    ясно 
+23.4 +15.6 62 +34  1012.6  0.3  721  264           
00 09.08.16 270 (З) 20000 м    ясно 
+22.3 +15.9 67 +34  1012.4  -0.3  721  265           
03 09.08.16 280 (З) 20000 м    ясно 
+22.3 +15.9 67 +34  1012.4  0.5  722  265  +21.3        сухая 
06 09.08.16 340 (С) 20000 м    ясно 
+27.1 +16.1 51 +39  1013  0.8  722  261           
09 09.08.16 360 (С) 20000 м    3/3 600 м 
[Cu hum]
+30.4 +13.7 36 +38  1011.7  -0.8  722  259           
12 09.08.16 320 (СЗ) 20000 м    1/1 600 м 
[Cu hum]
+31.5 +11.6 30 +36  1010.8  -0.7  721  258           
15 09.08.16 010 (С) 20000 м    ясно 
+30.1 +11.4 32 +34  1010.8  -0.3  721  259    +31.6       
18 09.08.16 010 (С) 20000 м    3/0 средняя 
[Ac trans]
+25.4 +12.3 44 +31  1012.3  0.7  721  264           
21 09.08.16 020 (С) 20000 м    ясно 
+24 +12.6 49 +30  1012.1  -0.4  721  265           
00 10.08.16 050 (СВ) 20000 м    ясно 
+21.1 +13 60 +27  1012  -0.5  721  267           
03 10.08.16 070 (В) 20000 м    ясно 
+20.9 +13.4 62 +28  1012.3  0.3  721  267  +19.2        сухая 
06 10.08.16 070 (В) 20000 м    ясно 
+26.7 +12.9 42 +33  1011.5  0.2  721  262           
09 10.08.16 060 (СВ) 6{10}  20000 м    ясно 
+30.8 +11.8 31 +35  1009.6  -1.2  720  258           
12 10.08.16 070 (В) 5{11}  20000 м    1/1 1000 м 
[Cu hum]
+32.2 +11.8 29 +37  1008.2  -1.1  719  257           
15 10.08.16 040 (СВ) 6{10}  20000 м    3/1 1000 м средняя 
[Cu hum|Ac trans]
+31.1 +10.9 29 +34  1007.5  -0.8  719  258    +32.6       
18 10.08.16 050 (СВ) 20000 м  в посл. час гроза  6/3 1000 м кучево-дожд., средняя 
[Cb calv|Ac trans]
+26.4 +10.5 37 +29  1008.9  0.5  719  262           
21 10.08.16 070 (В) 20000 м    5/1 1000 м кучево-дожд., средняя 
[Cb calv|Ac trans]
+23.7 +11 45 +27  1009  -0.3  719  264           
00 11.08.16 050 (СВ) 20000 м    4/0 средняя 
[Ac trans]
+23.2 +11.2 47 +27  1008.9  -0.2  719  265           
03 11.08.16 060 (СВ) 20000 м    6/3 1000 м средняя 
[Sc|Ac trans]
+22.3 +12.8 55 +28  1009.6  0.6  719  265  +21.6        сухая 
06 11.08.16 070 (В) 20000 м    6/3 1000 м средняя, верхняя 
[Cu med, cong|Ac cast|Ci fib]
+26.3 +14.4 48 +35  1009.4  0.5  719  261           
09 11.08.16 060 (СВ) 20000 м    4/1 1000 м средняя, верхняя 
[Cu med, cong|Ac trans|Ci fib]
+32.7 +13.1 30 +39  1007.8  -0.5  719  256           
12 11.08.16 080 (В) 7-10{10}  20000 м    3/1 1000 м верхняя 
[Cu hum|Ci sp]
+34.2 +9.6 22 +36  1006.5  -1.1  718  256           
15 11.08.16 250 (З) 6{10}  20000 м  гроза без осадков  10/3 600 м кучево-дожд., средняя 
[Cb calv|Ac und]
+28.1 +12.6 38 +34  1009.2  1.6  719  260    +34.5       
18 11.08.16 320 (СЗ) 9-16{20}  20000 м  слаб. ливневой дождь{гроза}  10/4 600 м кучево-дожд., средняя 
[Cb cap|Ac und]
+19.9 +17.2 84 +34  1011.7  1.1  720  267           
21 11.08.16 330 (СЗ) 2{16}  20000 м  {ливн. осадки}  3/0 средняя 
[Ac trans]
+19 +16.3 84 +32  1012.3  0.4  721  268           
00 12.08.16 290 (З) 20000 м  {ливн. осадки}  3/0 средняя 
[Ac trans]
+17.3 +15.4 89 +29  1012.6  721  270           
03 12.08.16 290 (З) 20000 м    3/0 средняя 
[Ac trans]
+17.9 +15 83 +29  1013  0.5  721  269  +16.8      влажная 
06 12.08.16 340 (С) 20000 м    ясно 
+24.4 +16.7 62 +37  1011.9  0.1  721  263           
09 12.08.16 350 (С) 20000 м    ясно 
+29.6 +16 44 +41  1010.6  -0.3  721  259           
12 12.08.16 360 (С) 20000 м    3/3 600 м 
[Cu hum]
+32.3 +13.2 31 +39  1009.8  -0.4  720  257           
15 12.08.16 340 (С) 20000 м    ясно 
+30.5 +14.9 39 +40  1009.7  -0.3  720  258    +32.3       
18 12.08.16 310 (СЗ) 20000 м    3/0 средняя 
[Ac trans]
+25.7 +15.6 54 +37  1011  0.5  721  262           
21 12.08.16 310 (СЗ) 20000 м    3/0 средняя 
[Ac trans]
+24.4 +16.8 63 +38  1010.9  -0.3  720  263           
00 13.08.16 310 (СЗ) 20000 м    ясно 
+23.6 +16.6 65 +36  1010.7  -0.3  720  263           
03 13.08.16 300 (СЗ) 20000 м    3/0 средняя 
[Ac trans]
+22.9 +16.9 69 +36  1011.6  0.7  721  264  +22.7        сухая 
06 13.08.16 290 (З) 20000 м    3/0 средняя 
[Ac trans]
+27.5 +17.5 54 +42  1011.6  0.8  721  260           
09 13.08.16 310 (СЗ) 20000 м    ясно 
+32.3 +15.3 36 +43  1010.4  -0.5  721  257           
12 13.08.16 360 (С) 20000 м    1/1 600 м 
[Cu hum]
+33.8 +13.9 30 +42  1009.3  -0.8  720  256           
15 13.08.16 320 (СЗ) 5{10}  20000 м    8/3 600 м кучево-дожд., средняя 
[Cb calv|Ac trans]
+30.6 +15.3 40 +41  1009.7  -0.1  720  258    +34       
18 13.08.16 310 (СЗ) 20000 м    8/3 600 м кучево-дожд., средняя 
[Cb calv|Ac trans]
+26.3 +18.3 61 +43  1010.8  0.5  721  261           
21 13.08.16 290 (З) 6-10{10}  20000 м    6/3 600 м кучево-дожд., средняя 
[Cb calv|Ac trans]
+22.2 +17 72 +36  1011.8  0.2  721  265           
00 14.08.16 280 (З) 3{10}  20000 м    3/0 средняя 
[Ac trans]
+20.8 +16.6 77 +34  1011  -1  720  266           
03 14.08.16 250 (З) 20000 м    8/3 600 м кучево-дожд., средняя 
[Cb calv|Ac trans]
+21.6 +15.7 69 +33  1010.6  -0.3  720  265  +19.2        сухая 
06 14.08.16 290 (З) 5{10}  10 км    10/3 600 м кучево-дожд., средняя 
[Cb cap|Ac und]
+21.5 +18.1 81 +37  1010.6  0.1  720  265           
09 14.08.16 270 (З) 4{11}  20000 м  {ливн. осадки}  10/4 300 м кучево-дожд., средняя 
[Cb calv|Ac und]
+21.9 +19.4 86 +41  1012.1  1.6  721  264           
12 14.08.16 290 (З) 7-11{12}  4000 м  дымка{ливн. осадки}  10/6 300 м кучево-дожд., средняя 
[Cb cap|Ac und]
+19.3 +17.9 92 +34  1013.4  0.7  721  267           
15 14.08.16 280 (З) 6{11}  10 км  {ливн. осадки}  10/6 300 м кучево-дожд., средняя 
[Cb calv|Ac und]
+18.6 +16 85 +31  1015.8  2.1  723  269    +22.6     
18 14.08.16 270 (З) 5{10}  20000 м  {ливн. осадки}  3/3 600 м кучево-дожд., средняя 
[Cb calv|Ac trans]
+16.7 +14 84 +25  1017.9  1.7  724  272           
21 14.08.16 260 (З) 5{10}  20000 м    1/1 600 м 
[Sc]
+14.6 +10.5 76 +17  1019.3  0.9  725  275           
00 15.08.16 270 (З) 20000 м    1/0 средняя 
[Ac trans]
+13.9 +10.4 79 +15  1019.8  0.3  725  276           
03 15.08.16 240 (ЮЗ) 20000 м    1/0 средняя 
[Ac trans]
+13 +10 82 +15  1020.9  0.9  726  277  +12.8        влажная 
06 15.08.16 250 (З) 20000 м    3/3 600 м 
[Cu hum]
+19.9 +9.9 52 +23  1019.9  0.2  726  271           
09 15.08.16 280 (З) 20000 м    6/6 600 м 
[Cu med, cong]
+23.2 +9.1 41 +24  1019  -0.3  726  268           
12 15.08.16 320 (СЗ) 20000 м    1/1 1000 м 
[Cu hum]
+24.5 +7.7 34 +25  1018.1  -0.6  725  267           
15 15.08.16 270 (З) 20000 м    1/0 средняя 
[Ac trans]
+24 +7.5 35 +24  1018.2  725  267    +25.4       
18 15.08.16 330 (СЗ) 20000 м    ясно 
+19.2 +8.6 50 +20  1019.2  0.2  725  272           
21 15.08.16 030 (СВ) 20000 м    ясно 
+16.8 +7.8 55 +18  1019  0.2  725  274           
00 16.08.16 050 (СВ) 20000 м    ясно 
+16.9 +7.3 53 +18  1018.1  -0.8  724  274           
03 16.08.16 120 (ЮВ) 20000 м    ясно 
+15.9 +7.8 59 +16  1018.3  724  274  +15.5        сухая 
06 16.08.16 100 (В) 20000 м    ясно 
+22.2 +10.3 47 +24  1016.6  -0.4  724  268           
09 16.08.16 110 (В) 8-12{13}  20000 м    ясно 
+27 +8.9 32 +27  1014.3  -1.5  723  264           
12 16.08.16 100 (В) 8-13{15}  20000 м    ясно 
+28.5 +8.7 29 +29  1012.5  -1.4  722  262           
15 16.08.16 110 (В) 6{13}  20000 м    10/0 средняя 
[Ac und]
+26 +8.9 34 +26  1013  -0.1  722  264    +28.7       
18 16.08.16 100 (В) 5{10}  20000 м    10/0 средняя 
[Ac und]
+22.5 +12.3 52 +28  1012.5  -0.9  721  266           
21 16.08.16 110 (В) 20000 м    10/3 1000 м кучево-дожд., средняя 
[Cb calv|Ac und]
+20.3 +12.8 62 +26  1012.4  -0.5  721  268           
00 17.08.16 090 (В) 20000 м    8/3 1000 м кучево-дожд., средняя 
[Cb calv|Ac trans]
+19.7 +13.4 67 +28  1012  -0.5  720  268           
03 17.08.16 080 (В) 20000 м    8/0 средняя 
[Ac trans]
+18.7 +15.1 80 +29  1012  -0.1  720  268  +18.5        сухая 
06 17.08.16 090 (В) 20000 м    8/8 300 м кучево-дожд. 
[Cb calv]
+23.4 +17.3 69 +38  1011  0.1  720  263           
09 17.08.16 070 (В) 20000 м    9/6 600 м кучево-дожд., средняя 
[Cb calv|Ac trans]
+23.8 +15.8 61 +35  1011  0.1  720  264           
12 17.08.16 070 (В) 20000 м    6/3 600 м средняя 
[Cu hum|Ac trans]
+27.2 +13.9 44 +35  1009.6  -0.9  720  261           
15 17.08.16 050 (СВ) 20000 м    4/3 1000 м верхняя 
[Sc diur, vesp|Ci fib]
+26.8 +12.9 42 +33  1009.4  -0.3  719  261    +28.1       
18 17.08.16 010 (С) 20000 м    3/0 средняя 
[Ac trans]
+22.3 +13.9 59 +30  1010  0.1  719  265           
21 17.08.16 320 (СЗ) 20000 м    8/0 средняя 
[Ac trans]
+21.4 +13.1 59 +28  1009.8  -0.3  719  266           
00 18.08.16 310 (СЗ) 20000 м    10/0 средняя 
[Ac und]
+22.3 +12.6 54 +28  1008.9  -0.8  719  265           
03 18.08.16 250 (З) 10 км  слаб. ливневой дождь  10/5 300 м кучево-дожд., средняя 
[Cb cap|Ac und]
+19.4 +16.8 85 +33  1009.9  0.6  719  267  +19.3    0.3    влажная 
06 18.08.16 160 (Ю) 20000 м  слаб. ливневой дождь  10/5 300 м кучево-дожд., средняя 
[Cb cap|Ac und]
+21 +19.2 89 +39  1010.2  0.7  719  265  +19.3         
09 18.08.16 290 (З) 10 км  слаб. ливневой дождь  10/8 300 м кучево-дожд., средняя 
[Cb cap|Ac und]
+20.1 +18.7 92 +37  1011.1  0.7  720  266           
12 18.08.16 330 (СЗ) 20000 м  {ливн. осадки}  10/5 300 м кучево-дожд., средняя 
[Cb calv|Ac und]
+21.1 +18.8 87 +39  1011.7  0.8  721  265           
15 18.08.16 тихо ()   20000 м    3/1 300 м средняя 
[Sc diur, vesp|Ac trans]
+22.6 +17.5 73 +37  1011.8  0.3  721  264    +22.8  11     
18 18.08.16 170 (Ю) 20000 м    4/0 средняя 
[Ac trans]
+18.7 +17.3 92 +33  1013.6  722  268           
21 18.08.16 230 (ЮЗ) 20000 м    1/0 средняя 
[Ac trans]
+18.7 +16.6 88 +33  1013.5  -0.1  721  268           
00 19.08.16 210 (ЮЗ) 20000 м    ясно 
+17.9 +14.9 83 +29  1013.8  0.1  722  270           
03 19.08.16 170 (Ю) 20000 м    1/0 средняя 
[Ac trans]
+18.4 +15.8 85 +31  1014.1  0.4  722  269  +17.2        влажная 
06 19.08.16 110 (В) 20000 м    ясно 
+24.7 +17 62 +38  1013.4  0.4  722  263           
09 19.08.16 060 (СВ) 20000 м    ясно 
+27.9 +15.4 47 +38  1012.6  -0.3  722  261           
12 19.08.16 080 (В) 4{11}  20000 м    1/1 600 м 
[Cu hum]
+30.2 +14 37 +38  1011.8  -0.4  722  259           
15 19.08.16 060 (СВ) 20000 м    ясно 
+29.1 +14.3 40 +38  1011.7  -0.2  721  260    +30.7       
18 19.08.16 010 (С) 20000 м    ясно 
+24 +16.7 64 +37  1013.1  0.5  722  264           
21 19.08.16 030 (СВ) 20000 м    ясно 
+22.2 +15.4 65 +33  1013.7  0.2  722  266           
00 20.08.16 350 (С) 20000 м    ясно 
+19.9 +15.3 75 +31  1013.8  -0.3  722  268           
03 20.08.16 110 (В) 20000 м    ясно 
+20.3 +15.6 74 +31  1014.2  0.5  722  267  +18.7        сухая 
06 20.08.16 110 (В) 20000 м    ясно 
+26.6 +16.7 55 +40  1013.6  0.4  722  262           
09 20.08.16 110 (В) 7-11{11}  20000 м    ясно 
+31.6 +7.7 23 +32  1012.7  -0.2  722  260           
12 20.08.16 090 (В) 7-10{12}  20000 м    ясно 
+33.4 +9.3 23 +34  1011.8  -0.6  722  258           
15 20.08.16 100 (В) 6{13}  20000 м    ясно 
+31.5 +11.2 29 +35  1011.8  -0.3  722  259    +33.5       
18 20.08.16 090 (В) 20000 м    ясно 
+26.5 +10.9 38 +30  1013.8  1.1  723  263           
21 20.08.16 100 (В) 20000 м    ясно 
+22.2 +10.3 47 +25  1014.5  0.1  722  267           
00 21.08.16 090 (В) 20000 м    ясно 
+19.8 +11.2 58 +24  1014.6  -0.3  722  269           
03 21.08.16 090 (В) 20000 м    ясно 
+18.9 +13 69 +25  1015.2  0.4  723  270  +17.7        сухая 
06 21.08.16 100 (В) 20000 м    4/0 верхняя 
[Ci fib]
+26.3 +13.5 45 +33  1014.7  0.8  723  263           
09 21.08.16 100 (В) 12-16{16}  20000 м    4/0 верхняя 
[Ci fib]
+31.7 +8.2 23 +32  1013.2  -0.7  723  260           
12 21.08.16 110 (В) 10-14{16}  20000 м    3/0 верхняя 
[Ci fib]
+34 +6.6 18 +34  1011.7  -1.1  722  258           
15 21.08.16 100 (В) 7-10{16}  20000 м    3/0 верхняя 
[Ci fib]
+31.9 +5.1 19 +32  1011.6  -0.4  722  259    +34.3       
18 21.08.16 110 (В) 6{11}  20000 м    ясно 
+27.3 +5.6 25 +27  1013.3  0.9  722  264           
21 21.08.16 090 (В) 20000 м    ясно 
+24.2 +8.1 36 +24  1013.5  -0.3  722  266           
00 22.08.16 080 (В) 20000 м    ясно 
+19.3 +10.3 56 +22  1013.8  -0.5  722  270           
03 22.08.16 090 (В) 20000 м    5/0 верхняя 
[Ci fib]
+19.7 +11.8 60 +24  1014.4  0.6  722  269  +17.6        сухая 
06 22.08.16 110 (В) 9-12{12}  20000 м    8/0 средняя, верхняя 
[Ac trans|Ci]
+26.5 +12.7 42 +32  1013.3  0.1  722  263           
09 22.08.16 100 (В) 11-19{19}  20000 м    8/0 верхняя 
[Ci]
+31.5 +10.2 27 +34  1011.8  -0.6  722  259           
12 22.08.16 110 (В) 10-13{19}  20000 м    8/0 средняя, верхняя 
[Ac trans|Ci]
+34.6 +5.2 16 +35  1010.5  -0.9  721  257           
15 22.08.16 100 (В) 10-14{17}  20000 м    8/0 верхняя 
[Ci]
+31.9 +4.8 18 +32  1010.6  -0.3  721  259    +34.9       
18 22.08.16 100 (В) 9-13{15}  20000 м    9/0 верхняя 
[Ci fib]
+27.5 +6.4 26 +28  1013.2  1.8  722  263           
21 22.08.16 090 (В) 6{14}  20000 м    4/0 средняя 
[Ac trans]
+22.8 +9.6 43 +24  1013.7  -0.3  722  267           
00 23.08.16 090 (В) 6{10}  20000 м    3/0 верхняя 
[Ci fib]
+20.5 +13.7 65 +28  1013.7  -0.3  722  268           
03 23.08.16 090 (В) 20000 м    8/0 средняя, верхняя 
[Ac trans|Ci fib]
+19.9 +15.8 77 +31  1014.4  0.6  722  268  +19.4        сухая 
06 23.08.16 100 (В) 7-10{10}  20000 м    3/0 верхняя 
[Ci fib]
+25.2 +16.3 58 +37  1013.6  0.1  722  263           
09 23.08.16 110 (В) 13-18{19}  20000 м    3/0 верхняя 
[Ci fib]
+31.6 +7.4 22 +32  1011.9  -0.8  722  259           
12 23.08.16 100 (В) 9-13{18}  20000 м    3/0 верхняя 
[Ci fib]
+33.6 +8.6 21 +34  1010.4  -1.1  721  257           
15 23.08.16 100 (В) 7-11{14}  20000 м    3/0 верхняя 
[Ci ing]
+31.5 +7 22 +32  1010.8  0.1  721  259    +33.7       
18 23.08.16 100 (В) 7-10{11}  20000 м    ясно 
+26.6 +7.5 30 +27  1012.5  0.8  722  264           
21 23.08.16 100 (В) 7{14}  20000 м    ясно 
+22.6 +17.7 74 +38  1013.1  0.1  722  264           
00 24.08.16 110 (В) 20000 м    ясно 
+19.7 +17.6 88 +35  1013.3  -0.3  721  267           
03 24.08.16 100 (В) 10 км    3/0 средняя 
[Ac trans]
+18 +17 94 +33  1013.4  -0.2  721  269  +18        сухая 
06 24.08.16 120 (ЮВ) 20000 м    8/8 300 м 
[St]
+22 +17.6 76 +37  1013.2  0.5  722  265           
09 24.08.16 100 (В) 20000 м    6/3 600 м верхняя 
[Cu hum|Ci fib]
+28.1 +16.7 50 +41  1011.2  -0.9  721  260           
12 24.08.16 230 (ЮЗ) 20000 м    3/3 600 м 
[Cu hum]
+31.3 +14.4 36 +40  1009.6  -0.9  720  257           
15 24.08.16 300 (СЗ) 20000 м    3/3 1000 м 
[Cu hum]
+30.3 +12.6 34 +36  1008.8  -1  719  259    +31.9       
18 24.08.16 010 (С) 20000 м    4/0 средняя, верхняя 
[Ac trans|Ci fib]
+25.8 +13.8 47 +33  1010.5  0.9  720  262           
21 24.08.16 130 (ЮВ) 20000 м    8/0 средняя, верхняя 
[Ac trans|Ci fib]
+22.6 +15.5 64 +33  1010.4  -0.6  720  264           
00 25.08.16 200 (Ю) 20000 м    3/0 средняя 
[Ac trans]
+21 +15.6 71 +32  1010.8  0.2  720  266           
03 25.08.16 280 (З) 20000 м    5/0 средняя 
[Ac trans]
+21 +16.5 75 +34  1010.9  0.1  720  266  +19        сухая 
06 25.08.16 300 (СЗ) 20000 м    4/0 верхняя 
[Ci fib]
+25.8 +18.3 63 +42  1010.7  0.7  720  261           
09 25.08.16 310 (СЗ) 20000 м    4/1 600 м верхняя 
[Cu hum|Ci fib]
+29.7 +17.2 47 +44  1009.8  -0.3  720  258           
12 25.08.16 300 (СЗ) 20000 м    8/3 600 м средняя, верхняя 
[Cu hum|Ac trans|Ci fib]
+30.5 +16.3 42 +43  1009.5  -0.2  720  257           
15 25.08.16 330 (СЗ) 20000 м  гроза без осадков  10/5 1000 м кучево-дожд., средняя 
[Cb calv|Ac und]
+27.4 +17.2 54 +41  1009.5  -0.5  720  260    +30.9       
18 25.08.16 210 (ЮЗ) 4{11}  20000 м  в посл. час гроза{ливн. осадки}  10/4 600 м кучево-дожд., средняя 
[Cb calv|Ac und]
+22.3 +16 68 +34  1011.8  1.3  721  265           
21 25.08.16 290 (З) 10 км  гроза, ливневой дождь  10/8 600 м кучево-дожд., средняя 
[Cb cap|Ac und]
+19.5 +18.1 92 +36  1012.9  0.6  721  267           
00 26.08.16 030 (СВ) 10 км  {гроза, ливн. осадки}  10/6 600 м кучево-дожд., средняя 
[Cb calv|Ac und]
+18.7 +17.7 94 +35  1012.9  -0.1  721  268           
03 26.08.16 220 (ЮЗ) 20000 м  слаб. ливневой дождь  10/6 300 м кучево-дожд., средняя 
[Cb cap|Ac und]
+18.4 +17.5 94 +34  1014.6  1.6  722  269  +18.2      влажная 
06 26.08.16 150 (ЮВ) 20000 м  в посл. час гроза{ливн. осадки}  10/4 600 м кучево-дожд., средняя 
[Cb calv|Ac und]
+19.5 +18.2 92 +37  1014.6  0.2  722  267  +18.2         
09 26.08.16 тихо ()   20000 м    8/3 600 м кучево-дожд., средняя, верхняя 
[Cb calv|Ac trans|Ci]
+26.3 +16.8 56 +39  1012.7  -0.7  722  262           
12 26.08.16 360 (С) 20000 м    9/3 1000 м кучево-дожд., средняя 
[Cb calv|Ac trans]
+24.6 +19.2 72 +43  1013.4  0.5  722  262           
15 26.08.16 050 (СВ) 20000 м  гроза без осадков  9/3 600 м кучево-дожд., средняя 
[Cb calv|Ac trans]
+23.5 +17.5 69 +38  1014.2  0.6  723  264    +27.8     
18 26.08.16 050 (СВ) 20000 м  {гроза, ливн. осадки}  6/3 600 м средняя 
[Sc diur, vesp|Ac As]
+20.2 +17.4 84 +34  1016  1.1  723  267           
21 26.08.16 010 (С) 20000 м    3/1 1000 м средняя 
[Sc|Ac trans]
+19.4 +16.8 85 +34  1015.7  -0.4  723  268           
00 27.08.16 050 (СВ) 20000 м    3/0 средняя 
[Ac trans]
+19.7 +16 79 +33  1015.9  0.2  723  268           
03 27.08.16 150 (ЮВ) 20000 м    9/3 1000 м средняя, верхняя 
[Sc|Ac As|Ci]
+18.7 +15.6 82 +31  1017.4  1.3  724  270  +17.8        сухая 
06 27.08.16 160 (Ю) 10 км  слаб. ливневой дождь  10/8 600 м кучево-дожд., средняя 
[Cb cap|Ac und]
+20.8 +16.9 78 +34  1018.1  725  268           
09 27.08.16 090 (В) 20000 м  гроза без осадков{ливн. осадки}  10/8 600 м кучево-дожд., средняя 
[Cb calv|Ac und]
+20.5 +17.7 84 +35  1018.5  0.3  725  268           
12 27.08.16 060 (СВ) 20000 м  {гроза, ливн. осадки}  8/3 600 м средняя 
[Sc diur, vesp|Ac trans]
+23.7 +17.7 69 +39  1017.3  -0.6  725  265           
15 27.08.16 100 (В) 20000 м    4/3 1000 м верхняя 
[Sc diur, vesp|Ci fib]
+23.3 +14.4 57 +32  1017.1  -0.3  725  266    +24.3     
18 27.08.16 170 (Ю) 20000 м    3/0 средняя 
[Ac trans]
+19.3 +14.8 75 +29  1018.1  0.2  725  270           
21 27.08.16 010 (С) 20000 м    4/0 средняя 
[Ac trans]
+18.9 +14.7 77 +29  1017.5  -0.6  724  270           
00 28.08.16 тихо ()   20000 м    3/0 средняя 
[Ac trans]
+17.6 +15 85 +27  1017  -0.7  724  271           
03 28.08.16 090 (В) 20000 м    5/0 средняя, верхняя 
[Ac trans|Ci fib]
+16.7 +14.3 86 +26  1017.4  0.2  724  272  +16.7        влажная 
06 28.08.16 100 (В) 20000 м    6/0 верхняя 
[Ci fib]
+24.3 +16 60 +36  1016.4  0.4  724  265  +16.6         
09 28.08.16 070 (В) 7-10{10}  20000 м    8/0 верхняя 
[Ci]
+29.1 +11.9 35 +34  1015.4  -0.3  724  261           
12 28.08.16 070 (В) 6-10{11}  20000 м    8/3 600 м верхняя 
[Cu hum|Ci fib]
+30.1 +12.1 33 +35  1014.3  -0.9  723  260           
15 28.08.16 120 (ЮВ) 4{10}  20000 м    8/3 1000 м верхняя 
[Cu hum|Ci fib]
+27.7 +13.3 41 +34  1014.4  -0.9  723  262    +30.3       
18 28.08.16 030 (СВ) 20000 м    3/0 средняя 
[Ac trans]
+23.7 +14.6 57 +33  1015.5  0.4  723  265           
21 28.08.16 060 (СВ) 20000 м    3/0 средняя 
[Ac trans]
+21.9 +11.6 52 +26  1016  0.4  724  268           
00 29.08.16 040 (СВ) 20000 м    ясно 
+19.9 +8.6 48 +21  1015.9  -0.5  723  270           
03 29.08.16 060 (СВ) 20000 м    3/0 средняя 
[Ac trans]
+18.6 +9 54 +20  1016  723  271  +18.5        сухая 
06 29.08.16 090 (В) 20000 м    3/0 средняя 
[Ac trans]
+24.8 +13.2 48 +31  1015.6  0.6  724  265           
09 29.08.16 100 (В) 7-10{12}  20000 м    3/1 600 м средняя 
[Cu hum|Ac trans]
+29.6 +13 36 +36  1014.1  -0.6  723  260           
12 29.08.16 100 (В) 7-11{17}  20000 м    3/3 600 м 
[Cu hum]
+29.9 +11.2 32 +33  1013.3  -0.8  723  260           
15 29.08.16 110 (В) 5{12}  20000 м    5/0 верхняя 
[Ci fib]
+28.2 +10.6 33 +31  1013.7  0.2  723  262    +30.5       
18 29.08.16 080 (В) 20000 м    6/0 верхняя 
[Ci fib]
+23.5 +9.2 40 +24  1014.4  -0.2  723  266           
21 29.08.16 080 (В) 20000 м    3/0 верхняя 
[Ci fib]
+19.7 +7.2 44 +20  1014.7  -0.4  722  270           
00 30.08.16 090 (В) 20000 м    ясно 
+18.3 +11.2 63 +23  1014.1  -0.4  722  270           
03 30.08.16 090 (В) 20000 м    6/0 верхняя 
[Ci fib]
+17.6 +11.8 69 +22  1014.1  -0.2  722  271  +16.6        сухая 
06 30.08.16 100 (В) 9-13{13}  20000 м    8/0 верхняя 
[Ci fib]
+23.7 +9.6 41 +25  1013.8  0.7  722  266           
09 30.08.16 110 (В) 11-16{16}  20000 м    8/0 средняя, верхняя 
[Ac trans|Ci fib]
+29 +8.4 28 +29  1012.7  -0.2  722  262           
12 30.08.16 110 (В) 9-13{17}  20000 м    8/0 средняя, верхняя 
[Ac trans|Ci fib]
+29.5 +8.9 28 +30  1010.8  -1.6  721  261           
15 30.08.16 100 (В) 4{15}  20000 м    8/0 средняя 
[Ac trans]
+27.9 +8.7 30 +28  1011.3  -0.1  721  262    +30.6       
18 30.08.16 190 (Ю) 20000 м    6/0 средняя 
[Ac trans]
+22.8 +11.6 49 +27  1011.9  -0.3  721  266           
21 30.08.16 110 (В) 20000 м    4/0 средняя 
[Ac trans]
+19.5 +12.5 64 +26  1011.8  -0.6  720  268           
00 31.08.16 110 (В) 20000 м    ясно 
+18.2 +10.2 60 +21  1011.6  -0.4  720  270           
03 31.08.16 160 (Ю) 20000 м    3/0 средняя 
[Ac trans]
+17.8 +15 84 +28  1011.6  720  269  +16.6        сухая 
06 31.08.16 200 (Ю) 20000 м    8/0 средняя, верхняя 
[Ac trans|Ci fib]
+23.9 +15.1 58 +34  1010  -0.5  720  263           
09 31.08.16 290 (З) 5{10}  20000 м  в посл. час ливневой дождь  9/3 1000 м кучево-дожд., средняя 
[Cb calv|Ac trans]
+22.5 +16.4 68 +35  1009.9  -0.3  719  264           
12 31.08.16 310 (СЗ) 20000 м  {ливн. осадки}  8/3 1000 м кучево-дожд., средняя, верхняя 
[Cb cap|Ac As|Ci sp]
+23.9 +16.8 64 +37  1009  -0.6  719  263           
15 31.08.16 240 (ЮЗ) 20000 м    8/3 1000 м кучево-дожд., средняя 
[Cb calv|Ac trans]
+22.1 +15 64 +32  1009.5  -0.1  719  265    +27.3       
18 31.08.16 240 (ЮЗ) 20000 м  в посл. час гроза{ливн. осадки}  8/3 1000 м кучево-дожд., средняя 
[Cb cap|Ac As]
+19.2 +16.4 84 +32  1010.6  0.6  719  267           
21 31.08.16 270 (З) 7-11{11}  20000 м    9/6 300 м кучево-дожд., средняя 
[Cb calv|Ac trans]
+18.7 +16.8 89 +32  1010.3  -0.3  719  267           
00 01.09.16 290 (З) 5{12}  10 км    8/6 200 м средняя 
[St|Ac und]
+17.1 +15 87 +27  1011.5  0.8  720  270           
03 01.09.16 300 (СЗ) 6-11{11}  4000 м  дымка  10/10 100 м 
[St]
+15.3 +13.6 90 +22  1013.2  1.3  721  272  +15.3        сухая 
Время (UTC), дата Ветер
(°,м/с) 
Видим.   Явления Облачность Т
(°С)
Тd
(°С)
f(%) Тe
(°С)
Pmin
(гПа)
dP
(гПа)
Po
(мм)
O2
(г/м3)
Тmin Tmax R s Состояние
почвы